Estación de Peumo Norte
Ultimos registro cada 15 minutos 51
| N° | Estación | Fecha / Hora | Temperatura | Humedad | Lluvia | Velocidad | Dirección | Radiación | Presion |
| 51 | Peumo Norte | 05-05-2026 12:30 | 19,5 | 61,7 | 0 | 0 | 168 | 245,6 | 997,5 |
| 50 | Peumo Norte | 05-05-2026 12:15 | 18,4 | 64,8 | 0 | 0 | 73 | 278,1 | 997,7 |
| 49 | Peumo Norte | 05-05-2026 12:00 | 17,5 | 67,7 | 0 | 0 | 53 | 221,9 | 997,9 |
| 48 | Peumo Norte | 05-05-2026 11:45 | 17,7 | 68,9 | 0 | 0 | 281 | 308,1 | 997,9 |
| 47 | Peumo Norte | 05-05-2026 11:30 | 16,7 | 71,9 | 0 | 0 | 281 | 150,6 | 998,4 |
| 46 | Peumo Norte | 05-05-2026 11:15 | 16,2 | 72,9 | 0 | 0 | 279 | 151,9 | 998,3 |
| 45 | Peumo Norte | 05-05-2026 11:00 | 15,6 | 74,8 | 0 | 0,5 | 254 | 128,1 | 998,6 |
| 44 | Peumo Norte | 05-05-2026 10:45 | 15,4 | 76,5 | 0 | 1 | 270 | 146,9 | 998,6 |
| 43 | Peumo Norte | 05-05-2026 10:30 | 15,4 | 76,4 | 0 | 0,5 | 295 | 165,6 | 998,5 |
| 42 | Peumo Norte | 05-05-2026 10:15 | 14,9 | 76,9 | 0 | 0,5 | 338 | 150,6 | 998,7 |
| 41 | Peumo Norte | 05-05-2026 10:00 | 14,1 | 81 | 0 | 0,5 | 343 | 143,1 | 999,1 |
| 40 | Peumo Norte | 05-05-2026 09:45 | 13,5 | 82,4 | 0 | 0,5 | 327 | 109,4 | 998,9 |
| 39 | Peumo Norte | 05-05-2026 09:30 | 12,8 | 83,3 | 0 | 0,5 | 324 | 90,6 | 999,1 |
| 38 | Peumo Norte | 05-05-2026 09:15 | 12,6 | 83,2 | 0 | 0 | 331 | 59,4 | 999 |
| 37 | Peumo Norte | 05-05-2026 09:00 | 12,6 | 82,4 | 0 | 0,5 | 337 | 46,9 | 998,8 |
| 36 | Peumo Norte | 05-05-2026 08:45 | 13,1 | 81,3 | 0 | 0 | 284 | 36,9 | 998,8 |
| 35 | Peumo Norte | 05-05-2026 08:30 | 12,9 | 79,9 | 0 | 0 | 62 | 39,4 | 998,5 |
| 34 | Peumo Norte | 05-05-2026 08:15 | 12,9 | 82,4 | 0 | 0 | 88 | 24,4 | 998,6 |
| 33 | Peumo Norte | 05-05-2026 08:00 | 11,9 | 84,7 | 0 | 0 | 69 | 29,4 | 998,4 |
| 32 | Peumo Norte | 05-05-2026 07:45 | 11,6 | 86,3 | 0 | 0 | 62 | 1,9 | 998,6 |
| 31 | Peumo Norte | 05-05-2026 07:30 | 11,3 | 86,8 | 0 | 0 | 112 | 0,6 | 999,7 |
| 30 | Peumo Norte | 05-05-2026 07:15 | 11,2 | 87,8 | 0 | 0 | 93 | 0,6 | 999,6 |
| 29 | Peumo Norte | 05-05-2026 07:00 | 11,2 | 88,7 | 0 | 0,5 | 115 | 0,6 | 999,9 |
| 28 | Peumo Norte | 05-05-2026 06:45 | 11,3 | 90,4 | 0 | 0,5 | 114 | 0,6 | 1000,8 |
| 27 | Peumo Norte | 05-05-2026 06:30 | 10,7 | 90,7 | 0 | 0 | 187 | 0,6 | 1001,1 |
| 26 | Peumo Norte | 05-05-2026 06:15 | 10,9 | 91,4 | 0 | 0 | 131 | 0,6 | 1000,7 |
| 25 | Peumo Norte | 05-05-2026 06:00 | 10,5 | 91,9 | 0 | 0 | 132 | 0,6 | 1000,8 |
| 24 | Peumo Norte | 05-05-2026 05:45 | 10,2 | 92,1 | 0 | 0 | 142 | 0,6 | 1000,9 |
| 23 | Peumo Norte | 05-05-2026 05:30 | 10,2 | 92,2 | 0 | 0 | 157 | 0,6 | 1000,3 |
| 22 | Peumo Norte | 05-05-2026 05:15 | 10,1 | 92 | 0 | 0 | 157 | 0,6 | 1000 |
| 21 | Peumo Norte | 05-05-2026 05:00 | 10,2 | 92,1 | 0 | 0 | 159 | 0,6 | 1000 |
| 20 | Peumo Norte | 05-05-2026 04:45 | 10,3 | 92,4 | 0 | 0 | 159 | 0,6 | 999,6 |
| 19 | Peumo Norte | 05-05-2026 04:30 | 9,9 | 92,3 | 0 | 0 | 159 | 0,6 | 999,8 |
| 18 | Peumo Norte | 05-05-2026 04:15 | 9,5 | 91,9 | 0 | 0 | 159 | 0,6 | 999,7 |
| 17 | Peumo Norte | 05-05-2026 04:00 | 9,3 | 91,5 | 0 | 0 | 159 | 0,6 | 999,6 |
| 16 | Peumo Norte | 05-05-2026 03:45 | 9,4 | 90,7 | 0 | 0 | 159 | 0,6 | 999,5 |
| 15 | Peumo Norte | 05-05-2026 03:30 | 9,8 | 90,5 | 0 | 0 | 159 | 0,6 | 999,7 |
| 14 | Peumo Norte | 05-05-2026 03:15 | 9,6 | 89,9 | 0 | 0 | 159 | 0,6 | 1000 |
| 13 | Peumo Norte | 05-05-2026 03:00 | 10,2 | 89,7 | 0 | 0 | 159 | 0,6 | 1000,1 |
| 12 | Peumo Norte | 05-05-2026 02:45 | 10,8 | 89,6 | 0 | 0 | 159 | 0,6 | 1000,1 |
| 11 | Peumo Norte | 05-05-2026 02:30 | 10,6 | 90,2 | 0 | 0 | 159 | 0,6 | 999,9 |
| 10 | Peumo Norte | 05-05-2026 02:15 | 10,5 | 90,6 | 0 | 0 | 164 | 0,6 | 999,9 |
| 9 | Peumo Norte | 05-05-2026 02:00 | 10,6 | 91 | 0 | 0 | 142 | 0,6 | 1000 |
| 8 | Peumo Norte | 05-05-2026 01:45 | 10 | 91,3 | 0 | 0 | 107 | 0,6 | 1000,2 |
| 7 | Peumo Norte | 05-05-2026 01:30 | 9,8 | 90,7 | 0 | 0 | 107 | 0,6 | 1000,4 |
| 6 | Peumo Norte | 05-05-2026 01:15 | 9,9 | 90,4 | 0 | 0 | 107 | 0,6 | 1000,5 |
| 5 | Peumo Norte | 05-05-2026 01:00 | 9,8 | 89,8 | 0 | 0 | 107 | 0,6 | 1000,5 |
| 4 | Peumo Norte | 05-05-2026 00:45 | 9,4 | 89,2 | 0 | 0 | 107 | 0,6 | 1000,6 |
| 3 | Peumo Norte | 05-05-2026 00:30 | 9,7 | 88,6 | 0 | 0 | 107 | 0,6 | 1000,4 |
| 2 | Peumo Norte | 05-05-2026 00:15 | 9,8 | 87,7 | 0 | 0 | 107 | 0,6 | 1000,4 |
| 1 | Peumo Norte | 05-05-2026 00:00 | 10,1 | 86,6 | 0 | 0 | 107 | 0,6 | 1000,5 |